When you browse on this site, cookies collect data to enhance your experience and personalize the content and advertising you see.
Visit our Privacy Policy to learn more. By continuing to use the site, you agree to this use of cookies and data.
  • In Spain
  • List of Countries
  • For 7 days
  • Water Temperature
  • Weather Map
  • Weather Widgets
  • user-avatar
    Login

    Hourly Weather Vigo

    Today, 22 October, Tuesday

    Time Temperature Precipitation Wind Pressure Humidity
    00:00 +8°C° 0 mm 2 mps 756 mmHg 91%
    01:00 +8°C° 0 mm 3 mps 756 mmHg 91%
    02:00 +8°C° 0 mm 3 mps 756 mmHg 91%
    03:00 +8°C° 0 mm 3 mps 756 mmHg 90%
    04:00 +8°C° 0 mm 3 mps 756 mmHg 90%
    05:00 +7°C° 0 mm 3 mps 757 mmHg 88%
    06:00 +9°C° 0 mm 2 mps 757 mmHg 84%
    07:00 +10°C° 0 mm 2 mps 757 mmHg 81%
    08:00 +12°C° 0 mm 2 mps 757 mmHg 77%
    09:00 +14°C° 0 mm 2 mps 757 mmHg 68%
    10:00 +16°C° 0 mm 2 mps 756 mmHg 60%
    11:00 +18°C° 0 mm 2 mps 756 mmHg 51%
    12:00 +18°C° 0 mm 3 mps 755 mmHg 51%
    13:00 +19°C° 0 mm 3 mps 755 mmHg 51%
    14:00 +19°C° 0 mm 3 mps 754 mmHg 51%
    15:00 +17°C° 0 mm 3 mps 754 mmHg 60%
    16:00 +14°C° 0 mm 4 mps 754 mmHg 70%
    17:00 +12°C° 0 mm 4 mps 754 mmHg 79%
    18:00 +12°C° 0 mm 4 mps 754 mmHg 83%
    19:00 +11°C° 0 mm 4 mps 754 mmHg 86%
    20:00 +10°C° 0 mm 4 mps 755 mmHg 89%
    21:00 +10°C° 0 mm 4 mps 754 mmHg 90%
    22:00 +8°C° 0 mm 4 mps 754 mmHg 91%
    23:00 +8°C° 0 mm 4 mps 754 mmHg 92%

    Tomorrow, 23 October, Wednesday

    Time Temperature Precipitation Wind Pressure Humidity
    00:00 +8°C° 0 mm 4 mps 754 mmHg 93%
    01:00 +8°C° 0 mm 4 mps 753 mmHg 94%
    02:00 +8°C° 0 mm 3 mps 753 mmHg 94%
    03:00 +8°C° 0 mm 3 mps 753 mmHg 95%
    04:00 +8°C° 0 mm 3 mps 752 mmHg 95%
    05:00 +8°C° 0 mm 3 mps 752 mmHg 96%
    06:00 +10°C° 0 mm 3 mps 752 mmHg 91%
    07:00 +11°C° 0 mm 3 mps 753 mmHg 86%
    08:00 +12°C° 0 mm 4 mps 753 mmHg 81%
    09:00 +14°C° 0 mm 4 mps 752 mmHg 74%
    10:00 +15°C° 0 mm 4 mps 752 mmHg 67%
    11:00 +17°C° 0 mm 4 mps 752 mmHg 60%
    12:00 +16°C° 0 mm 5 mps 752 mmHg 62%
    13:00 +17°C° 0 mm 5 mps 752 mmHg 63%
    14:00 +17°C° 0 mm 5 mps 752 mmHg 65%
    15:00 +15°C° 0 mm 5 mps 752 mmHg 73%
    16:00 +13°C° 0 mm 4 mps 752 mmHg 82%
    17:00 +12°C° 0 mm 4 mps 753 mmHg 91%
    18:00 +11°C° 0 mm 3 mps 753 mmHg 92%
    19:00 +11°C° 0 mm 3 mps 754 mmHg 93%
    20:00 +11°C° 0 mm 3 mps 754 mmHg 94%
    21:00 +10°C° 0 mm 2 mps 754 mmHg 94%
    22:00 +10°C° 0 mm 2 mps 754 mmHg 95%
    23:00 +11°C° 0 mm 1 mps 754 mmHg 95%

    Day after tomorrow, 24 October, Thursday

    Time Temperature Precipitation Wind Pressure Humidity
    00:00 +11°C° 0 mm 1 mps 754 mmHg 94%
    01:00 +11°C° 0 mm 1 mps 754 mmHg 92%
    02:00 +10°C° 0 mm 2 mps 755 mmHg 91%
    03:00 +12°C° 0.3 mm 2 mps 755 mmHg 91%
    04:00 +11°C° 0.3 mm 3 mps 755 mmHg 90%
    05:00 +11°C° 0.3 mm 3 mps 755 mmHg 90%
    06:00 +11°C° 1.2 mm 4 mps 755 mmHg 92%
    07:00 +12°C° 1.2 mm 4 mps 756 mmHg 93%
    08:00 +12°C° 1.2 mm 4 mps 756 mmHg 95%
    09:00 +12°C° 1.2 mm 4 mps 756 mmHg 95%
    10:00 +13°C° 1.2 mm 4 mps 757 mmHg 96%
    11:00 +13°C° 1.2 mm 4 mps 757 mmHg 96%
    12:00 +13°C° 0.4 mm 4 mps 757 mmHg 96%
    13:00 +13°C° 0.4 mm 4 mps 757 mmHg 96%
    14:00 +13°C° 0.4 mm 4 mps 757 mmHg 96%
    15:00 +13°C° 0.1 mm 4 mps 758 mmHg 96%
    16:00 +13°C° 0.1 mm 3 mps 758 mmHg 96%
    17:00 +13°C° 0.1 mm 3 mps 758 mmHg 96%
    18:00 +13°C° 0 mm 3 mps 758 mmHg 96%
    19:00 +13°C° 0 mm 3 mps 759 mmHg 96%
    20:00 +13°C° 0 mm 3 mps 759 mmHg 96%
    21:00 +13°C° 0 mm 3 mps 759 mmHg 96%
    22:00 +12°C° 0 mm 3 mps 759 mmHg 96%
    23:00 +12°C° 0 mm 3 mps 759 mmHg 96%

    25 October, Friday

    Time Temperature Precipitation Wind Pressure Humidity
    00:00 +12°C° 0 mm 3 mps 759 mmHg 96%
    01:00 +12°C° 0 mm 3 mps 759 mmHg 96%
    02:00 +12°C° 0 mm 3 mps 759 mmHg 95%
    03:00 +12°C° 0 mm 3 mps 759 mmHg 95%
    04:00 +12°C° 0 mm 3 mps 759 mmHg 95%
    05:00 +11°C° 0 mm 4 mps 758 mmHg 95%
    06:00 +12°C° 0 mm 4 mps 758 mmHg 93%
    07:00 +13°C° 0 mm 4 mps 759 mmHg 91%
    08:00 +14°C° 0 mm 4 mps 759 mmHg 89%
    09:00 +17°C° 0 mm 4 mps 759 mmHg 83%
    10:00 +17°C° 0 mm 5 mps 759 mmHg 76%
    11:00 +19°C° 0 mm 5 mps 759 mmHg 70%
    12:00 +19°C° 0 mm 5 mps 759 mmHg 69%
    13:00 +19°C° 0 mm 5 mps 758 mmHg 68%
    14:00 +19°C° 0 mm 5 mps 758 mmHg 67%
    15:00 +18°C° 0 mm 4 mps 758 mmHg 75%
    16:00 +16°C° 0 mm 3 mps 758 mmHg 83%
    17:00 +14°C° 0 mm 2 mps 758 mmHg 91%
    18:00 +14°C° 0 mm 2 mps 758 mmHg 92%
    19:00 +13°C° 0 mm 2 mps 758 mmHg 92%
    20:00 +13°C° 0 mm 2 mps 759 mmHg 93%
    21:00 +13°C° 0 mm 2 mps 759 mmHg 93%
    22:00 +13°C° 0 mm 2 mps 758 mmHg 92%
    23:00 +13°C° 0 mm 2 mps 758 mmHg 92%

    26 October, Saturday

    Time Temperature Precipitation Wind Pressure Humidity
    00:00 +12°C° 0 mm 2 mps 758 mmHg 92%
    01:00 +12°C° 0 mm 2 mps 758 mmHg 91%
    02:00 +12°C° 0 mm 2 mps 758 mmHg 91%
    03:00 +12°C° 0 mm 2 mps 758 mmHg 90%
    04:00 +12°C° 0 mm 2 mps 758 mmHg 89%
    05:00 +12°C° 0 mm 1 mps 758 mmHg 88%
    06:00 +14°C° 0 mm 1 mps 758 mmHg 83%
    07:00 +15°C° 0 mm 1 mps 758 mmHg 78%
    08:00 +16°C° 0 mm 1 mps 758 mmHg 73%
    09:00 +18°C° 0 mm 2 mps 758 mmHg 66%
    10:00 +20°C° 0 mm 2 mps 758 mmHg 59%
    11:00 +22°C° 0 mm 3 mps 758 mmHg 51%
    12:00 +22°C° 0 mm 3 mps 757 mmHg 52%
    13:00 +22°C° 0 mm 3 mps 757 mmHg 52%
    14:00 +22°C° 0 mm 3 mps 757 mmHg 53%
    15:00 +20°C° 0 mm 2 mps 757 mmHg 61%
    16:00 +18°C° 0 mm 2 mps 757 mmHg 69%
    17:00 +16°C° 0 mm 1 mps 757 mmHg 77%
    18:00 +15°C° 0 mm 1 mps 757 mmHg 76%
    19:00 +15°C° 0 mm 1 mps 757 mmHg 75%
    20:00 +15°C° 0 mm 1 mps 757 mmHg 74%
    21:00 +15°C° 0 mm 2 mps 757 mmHg 73%
    22:00 +15°C° 0 mm 2 mps 757 mmHg 72%
    23:00 +15°C° 0 mm 2 mps 756 mmHg 71%

    27 October, Sunday

    Time Temperature Precipitation Wind Pressure Humidity
    00:00 +15°C° 0 mm 2 mps 756 mmHg 71%
    01:00 +14°C° 0 mm 2 mps 756 mmHg 71%
    02:00 +14°C° 0 mm 1 mps 756 mmHg 71%
    03:00 +15°C° 0 mm 2 mps 756 mmHg 69%
    04:00 +15°C° 0 mm 2 mps 756 mmHg 68%
    05:00 +15°C° 0 mm 2 mps 756 mmHg 66%
    06:00 +16°C° 0 mm 2 mps 756 mmHg 65%
    07:00 +17°C° 0 mm 2 mps 756 mmHg 64%
    08:00 +17°C° 0 mm 2 mps 755 mmHg 64%
    09:00 +19°C° 0 mm 3 mps 755 mmHg 58%
    10:00 +21°C° 0 mm 3 mps 755 mmHg 53%
    11:00 +24°C° 0 mm 3 mps 755 mmHg 48%
    12:00 +24°C° 0 mm 3 mps 755 mmHg 49%
    13:00 +24°C° 0 mm 3 mps 755 mmHg 51%
    14:00 +22°C° 0 mm 4 mps 755 mmHg 52%
    15:00 +21°C° 0 mm 3 mps 755 mmHg 58%
    16:00 +19°C° 0 mm 3 mps 755 mmHg 64%
    17:00 +17°C° 0 mm 3 mps 755 mmHg 71%
    18:00 +17°C° 0 mm 3 mps 755 mmHg 70%
    19:00 +17°C° 0 mm 3 mps 755 mmHg 70%
    20:00 +16°C° 0 mm 3 mps 755 mmHg 70%
    21:00 +16°C° 0 mm 3 mps 754 mmHg 68%
    22:00 +17°C° 0 mm 3 mps 754 mmHg 67%
    23:00 +17°C° 0 mm 3 mps 754 mmHg 65%

    28 October, Monday

    Time Temperature Precipitation Wind Pressure Humidity
    00:00 +17°C° 0 mm 3 mps 754 mmHg 64%
    01:00 +17°C° 0 mm 3 mps 753 mmHg 62%
    02:00 +17°C° 0 mm 3 mps 753 mmHg 61%
    03:00 +17°C° 0 mm 4 mps 753 mmHg 62%
    04:00 +17°C° 0 mm 4 mps 753 mmHg 63%
    05:00 +17°C° 0 mm 4 mps 753 mmHg 64%
    06:00 +17°C° 0 mm 4 mps 753 mmHg 64%
    07:00 +18°C° 0 mm 4 mps 752 mmHg 64%
    08:00 +19°C° 0 mm 4 mps 752 mmHg 63%
    09:00 +20°C° 0 mm 4 mps 752 mmHg 58%
    10:00 +21°C° 0 mm 5 mps 752 mmHg 53%
    11:00 +23°C° 0 mm 6 mps 752 mmHg 48%
    12:00 +23°C° 0 mm 6 mps 752 mmHg 50%
    13:00 +22°C° 0 mm 6 mps 752 mmHg 52%
    14:00 +22°C° 0 mm 7 mps 751 mmHg 55%
    15:00 +21°C° 0.4 mm 6 mps 751 mmHg 62%
    16:00 +20°C° 0.4 mm 6 mps 751 mmHg 69%
    17:00 +19°C° 0.4 mm 6 mps 751 mmHg 76%
    18:00 +17°C° 0.3 mm 5 mps 752 mmHg 78%
    19:00 +17°C° 0.3 mm 5 mps 752 mmHg 80%
    20:00 +18°C° 0.3 mm 4 mps 752 mmHg 81%
    21:00 +18°C° 0.3 mm 4 mps 752 mmHg 82%
    22:00 +17°C° 0.3 mm 4 mps 753 mmHg 82%
    23:00 +17°C° 0.3 mm 4 mps 753 mmHg 82%
    Show more